Regional Weather Roundup
Issued by NWS Little Rock, AR

Home | Current Version | Previous Version | Text Only | Print | Product List | Glossary Off
Versions: 1 2 3 4 5 6 7 8 9 10 11 12 13 14 15 16 17 18 19 20 21 22 23 24 25 26 27 28 29 30 31 32 33 34 35 36 37 38 39 40 41 42 43 44 45 46 47 48 49 50

000
ASUS44 KLZK 200805
RWRLZK

WEATHER ROUNDUP FOR ARKANSAS
NATIONAL WEATHER SERVICE LITTLE ROCK AR
300 AM CDT MON OCT 20 2014

NOTE: "FAIR" INDICATES FEW OR NO CLOUDS BELOW 12,000 FEET WITH NO
SIGNIFICANT WEATHER AND/OR OBSTRUCTIONS TO VISIBILITY.

ARZ001-003-010-029-200900-
NORTHWEST ARKANSAS

CITY           SKY/WX    TMP DP  RH WIND       PRES   REMARKS
FAYETTEVILLE   PTCLDY    49  48  97 CALM      30.07F
FORT SMITH     PTCLDY    55  52  89 E3        30.06F
HARRISON       CLOUDY    53  51  93 S5        30.06F
BENTONVILLE    CLOUDY    55  48  76 SW3       30.07S
ROGERS         MOCLDY    55  50  83 SW3       30.08R
SILOAM SPGS    CLOUDY    54  46  76 CALM      30.08S
HIGHFILL       LGT RAIN  54  51  90 CALM      30.06S
$$

ARZ004-005-016-200900-
NORTH CENTRAL ARKANSAS

CITY           SKY/WX    TMP DP  RH WIND       PRES   REMARKS
BATESVILLE     CLEAR     48  45  87 CALM      30.06F
FLIPPIN        PTCLDY    54  45  71 W5        30.06S
MTN HOME       CLOUDY    53  48  83 CALM      30.05F
$$

ARZ040-041-200900-
WEST CENTRAL ARKANSAS

CITY           SKY/WX    TMP DP  RH WIND       PRES   REMARKS
MENA           CLEAR     52  50  93 CALM      30.09S
MOUNT IDA      CLEAR     47  46  97 CALM      30.06F
$$

ARZ009-017-025-026-028-200900-
NORTHEAST ARKANSAS

CITY           SKY/WX    TMP DP  RH WIND       PRES   REMARKS
CORNING        FAIR      50  50 100 SW3       30.07F
JONESBORO      CLEAR     50  48  93 CALM      30.07S
NEWPORT        CLEAR     50  47  89 CALM      30.08S
WALNUT RIDGE   PTCLDY    54  37  54 SW5       30.07R
BLYTHEVILLE    PTCLDY    52  50  93 S3        30.08S
$$

ARZ022-023-033-042-044-200900-
CENTRAL ARKANSAS

CITY           SKY/WX    TMP DP  RH WIND       PRES   REMARKS
LITTLE ROCK    PTCLDY    50  46  86 SW3       30.09R
N LITTLE ROCK    N/A     53  49  85 SW5       30.09R
JACKSONVILLE   PTCLDY    46  44  93 W3        30.08S
SEARCY         CLEAR     45  45 100 CALM      30.09S
HOT SPRINGS    PTCLDY    49  48  97 CALM      30.09S
RUSSELLVILLE   CLEAR     50  48  93 CALM      30.08S
$$

ARZ036-200900-
EAST ARKANSAS

CITY           SKY/WX    TMP DP  RH WIND       PRES   REMARKS
WEST MEMPHIS   PTCLDY    45  45 100 CALM      30.07F
$$

ARZ050-053-066-070-073-200900-
SOUTHWEST ARKANSAS

CITY           SKY/WX    TMP DP  RH WIND       PRES   REMARKS
ARKADELPHIA    FAIR      50  50 100 CALM      30.09S FOG
CAMDEN         CLEAR     45  43  93 CALM      30.09S FOG
TEXARKANA      CLEAR     52  50  93 SE3       30.07F
EL DORADO      CLEAR     47  46  97 CALM      30.08F
DE QUEEN       FOG       48  48 100 CALM      30.06F VSB 3/4
$$

ARZ056-057-069-200900-
SOUTHEAST ARKANSAS

CITY           SKY/WX    TMP DP  RH WIND       PRES   REMARKS
PINE BLUFF     CLEAR     48  46  93 CALM      30.09S
STUTTGART      CLEAR     52  48  87 CALM      30.09S
MONTICELLO     CLEAR     47  45  93 CALM      30.08S

$$




USA.gov is the U.S. government's official web portal to all federal, state and local government web resources and services.